433  
ASUS46 KSGX 111410  
RWRSGX  
 
SAN DIEGO HOURLY WEATHER ROUNDUP  
NATIONAL WEATHER SERVICE SAN DIEGO CA  
700 AM PDT THU AUG 11 2022  
 
NOTE: "FAIR" INDICATES FEW OR NO CLOUDS BELOW 12,000 FEET WITH NO  
SIGNIFICANT WEATHER AND/OR S TO VISIBILITY
.  
 
CAZ042-043-060-061-PZZ750-775-111500-  
 
GREATER SAN DIEGO AREA  
 
CITY SKY/WX TMP DP RH WIND PRES REMARKS
 
SAN DIEGO AP PTCLDY 69 67 93 N6 30.00R FOG  
BROWN FIELD CLEAR 69 62 78 CALM 29.99R  
MIRAMAR MCAS FOG 67 67 100 NW6 29.99R VSB 1/4  
MONTGOMERY FLD FOG 68 67 96 NW3 30.00R VSB 1/2  
GILLESPIE FLD CLEAR 68 57 68 CALM 30.00R  
 

 
 
NORTH SAN DIEGO COUNTY  
 
CITY SKY/WX TMP DP RH WIND PRES REMARKS
 
CAMP PENDLETON CLEAR 63 58 83 CALM 29.99R  
OCEANSIDE AP CLEAR 65 62 90 CALM 29.98S  
CARLSBAD CLEAR 70 66 87 CALM 29.99R  
FALLBROOK FAIR 66 57 72 CALM 30.01R  
 

 
 
EAST SAN DIEGO COUNTY  
 
CITY SKY/WX TMP DP RH WIND PRES REMARKS
 
RAMONA CLEAR 67 51 56 CALM 30.03R  
 

 
 
ORANGE COUNTY AND THE LOS ANGELES BASIN  
 
CITY SKY/WX TMP DP RH WIND PRES REMARKS
 
JOHN WAYNE AP PTCLDY 72 61 68 CALM 29.99R  
LOS ALAMITOS PTCLDY 67 64 90 CALM 29.97R  
FULLERTON CLEAR 72 63 73 CALM 29.98R  
LONG BEACH CLEAR 69 64 84 CALM 29.99R  
L.A. AP PTCLDY 71 61 70 N5 29.99S  
L.A. DOWNTOWN CLEAR 69 61 75 CALM 29.99R  
 

 
 
THE INLAND EMPIRE  
 
CITY SKY/WX TMP DP RH WIND PRES REMARKS
 
CORONA CLEAR 68 59 73 CALM 30.01R  
UPLAND AP FAIR 75 45 33 CALM 30.02S  
CHINO PTCLDY 70 57 63 CALM 30.01R  
ONTARIO PTCLDY 73 55 53 CALM 30.01R  
RIVERSIDE AP CLEAR 71 52 50 SE3 30.01R  
MARCH ARB CLEAR 72 43 35 CALM 30.04R  
HEMET AP FAIR 69 50 50 CALM 30.04S  
FRENCH VALLEY FAIR 70 48 46 CALM 30.04R  
 

 
 
SAN BERNARDINO AND RIVERSIDE COUNTY MOUNTAINS  
 
CITY SKY/WX TMP DP RH WIND PRES REMARKS
 
BIG BEAR AP CLEAR 48 43 81 CALM 30.39R  
 

 
 
SOUTHERN DESERT INCLUDING THE COACHELLA VALLEY  
 
CITY SKY/WX TMP DP RH WIND PRES REMARKS
 
PALM SPRINGS SUNNY 87 51 28 CALM 29.95R  
THERMAL MOSUNNY 78 58 49 CALM 29.90R  
BORREGO AP FAIR 81 52 36 CALM 29.94R  
BLYTHE PTSUNNY 87 71 58 CALM 29.94R  
IMPERIAL AP SUNNY 86 70 58 E5 29.89R  
EL CENTRO NAS MOSUNNY 85 70 60 E3 29.91R  
YUMA AZ PTSUNNY 86 74 67 CALM 29.91R  
 

 
 
UPPER DESERT  
 
CITY SKY/WX TMP DP RH WIND PRES REMARKS
 
VICTORVILLE AP CLEAR 73 46 38 SE6 30.14R  
PALMDALE CLEAR 75 39 27 S5 30.09R  
LANCASTER CLEAR 73 43 33 CALM 30.08R  
EDWARDS AFB PTCLDY 71 40 32 S5 30.06R  
DAGGETT SUNNY 79 48 33 W8 30.05R  
29 PALMS N MOSUNNY 83 53 35 W7 30.10R  
NEEDLES PTSUNNY 87 67 51 CALM 29.98R  
 

 
 
REGIONAL REPORTS  
 
CITY SKY/WX TMP DP RH WIND PRES REMARKS
 
SANTA BARBARA CLEAR 59 56 89 CALM 29.99R  
LAS VEGAS NV PTSUNNY 83 62 49 CALM 30.06S  
PHOENIX AZ PTSUNNY 86 66 51 E8 30.00R  
TIJUANA PTCLDY 70 63 78 CALM 30.02R  
 

 
 
OFFSHORE ISLANDS  
 
CITY SKY/WX TMP DP RH WIND PRES REMARKS
 
CATALINA ARPT CLEAR 76 41 28 W7 30.05R  
SAN CLEMENTE I MOCLDY N/A N/A N/A W8 30.02R  
SAN NICOLAS IS MOCLDY 60 59 96 NW20G25 30.01R FOG  
 

 
 
MARINE AND OFFSHORE BUOY REPORTS  
 
STATION/POSITION SKY/WX TEMP WIND PRES VSBY SWELL
 
AIR SEA DIR/SP/G HT/PER/DIR  
(F) (DEG/KT/KT) (MB) (MI) (FT/S/D)  
TANNER BANKS 64 320/ 17/ 23 1015.0  
S CLEMENTE BASIN 70 300/ 10/ 14 1014.5  
SAN NICOLAS IS. 63 N/A 2/180/11  
W. S. BARBARA CH 57 320/ 21/ 27 1015.4  
M. S. BARBARA CH 63 260/ 8/ 10 1014.9  
S. MONICA BASIN 66 350/ 4/ 6 1015.7  
S PEDRO CHANNEL 67 N/A 2/160/11  
SAN DIEGO BAY 71 1014.7  
 

 
 
 
 
CLICK HERE TO GO TO PREVIOUS BULLETINS.

The Nexlab CA Page Main Text Page